Location: Fort Worth, Tx
(32.7431°N, 97.3695°W)
Time: 18:23:21
(UTC-04:00)

RS-15 - Visible Passes

Search period start: 31 March 2023 00:00
Search period end: 10 April 2023 00:00
Orbit: 1884 x 2161 km, 64.8° (Epoch: 30 March)

Date Brightness Start Highest point End Pass type
(mag) Time Alt. Az. Time Alt. Az. Time Alt. Az.
31 Mar 8.9 01:55:07 10° NNW 02:04:24 38° NNE 02:04:24 38° NNE visible
31 Mar 9.1 04:07:32 10° NW 04:12:07 27° NW 04:12:07 27° NW visible
31 Mar 10.0 23:08:05 10° N 23:11:02 11° N 23:13:56 10° NNE visible
01 Apr 9.0 01:19:16 10° NNW 01:29:22 31° NE 01:29:22 31° NE visible
01 Apr 8.9 03:31:15 10° NNW 03:37:05 35° NW 03:37:05 35° NW visible
01 Apr 10.1 22:31:39 10° N 22:33:19 10° N 22:34:57 10° N visible
02 Apr 9.3 00:43:27 10° NNW 00:52:37 24° NE 00:54:22 24° NE visible
02 Apr 8.7 02:55:06 10° NNW 03:02:05 43° NNW 03:02:05 43° NNW visible
02 Apr 10.1 21:53:19 10° NNW 21:55:33 11° N 21:57:47 10° N visible
03 Apr 9.5 00:07:40 10° N 00:15:36 19° NNE 00:19:23 17° NE visible
03 Apr 8.6 02:19:03 10° NNW 02:27:07 48° N 02:27:07 48° N visible
03 Apr 9.6 04:33:03 10° NW 04:34:51 15° WNW 04:34:51 15° WNW visible
03 Apr 10.1 21:13:57 10° NNW 21:17:52 12° NNW 21:21:45 10° N visible
03 Apr 9.7 23:31:53 10° N 23:38:23 16° NNE 23:44:26 10° ENE visible
04 Apr 8.6 01:43:06 10° NNW 01:52:10 47° NNE 01:52:10 47° NNE visible
04 Apr 9.3 03:56:12 10° NW 03:59:55 22° NW 03:59:55 22° NW visible
04 Apr 9.8 22:56:05 10° N 23:00:57 13° NNE 23:05:44 10° NE visible
05 Apr 8.7 01:07:12 10° NNW 01:17:16 40° NE 01:17:16 40° NE visible
05 Apr 9.0 03:19:40 10° NW 03:25:00 31° NW 03:25:00 31° NW visible
05 Apr 9.9 22:20:12 10° N 22:23:22 11° N 22:26:29 10° NNE visible
06 Apr 8.9 00:31:21 10° NNW 00:41:37 32° NE 00:42:22 32° NE visible
06 Apr 8.7 02:43:22 10° NNW 02:50:06 41° NW 02:50:06 41° NW visible
06 Apr 10.0 21:43:55 10° N 21:45:39 10° N 21:47:22 10° NNE visible
06 Apr 9.1 23:55:32 10° NNW 00:04:50 25° NE 00:07:30 23° ENE visible
07 Apr 8.5 02:07:12 10° NNW 02:15:14 51° NNW 02:15:14 51° NNW visible
07 Apr 9.8 04:22:54 10° WNW 04:22:59 10° WNW 04:22:59 10° WNW visible
07 Apr 9.4 23:19:44 10° N 23:27:51 20° NNE 23:32:39 16° ENE visible
08 Apr 8.3 01:31:09 10° NNW 01:40:23 57° N 01:40:23 57° N visible
08 Apr 9.5 03:45:19 10° NW 03:48:08 17° WNW 03:48:08 17° WNW visible
08 Apr 9.6 22:43:57 10° N 22:50:39 16° NNE 22:57:11 10° ENE visible
09 Apr 8.3 00:55:11 10° NNW 01:05:34 53° NE 01:05:34 53° NE visible
09 Apr 9.2 03:08:24 10° NW 03:13:18 26° WNW 03:13:18 26° WNW visible
09 Apr 9.7 22:08:10 10° N 22:13:16 13° NNE 22:18:17 10° NE visible
